Regional Weather Roundup
Issued by NWS Binghamton, NY

Home | Current Version | Previous Version | Text Only | Print | Product List | Glossary On
Versions: 1 2 3 4 5 6 7 8 9 10 11 12 13 14 15 16 17 18 19 20 21 22 23 24 25 26 27
000
ASUS41 KBGM 080710
RWRBGM

REGIONAL WEATHER ROUNDUP
NATIONAL WEATHER SERVICE BINGHAMTON NY
200 AM EST THU DEC 08 2016

Note: "fair" indicates few or no clouds below 12,000 feet with no
significant weather and/or obstructions to visibility.

* = Station(s) that does not report precipitation, such as rain,
snow, etc, also no thunder or fog.

NYZ009-015>018-022>025-036-037-044>046-055>057-062-080800
...Central New York...

CITY           SKY/WX    TMP DP  RH WIND       PRES   REMARKS
Binghamton     CLOUDY    31  25  78 W8        29.93R WCI  23
Cortland       CLOUDY    32  32 100 CALM      29.95S
Dansville      CLOUDY    29  25  85 SE6       29.96S WCI  23
Elmira         CLOUDY    34  24  67 SW5       29.98R WCI  30
Seneca Falls   CLOUDY    36  28  75 SW6       29.97R WCI  31
Ithaca         CLOUDY    34  25  69 SW9       29.97R WCI  27
Hamilton       CLOUDY    28  27  93 CALM      29.94S
Monticello     CLEAR     30  30 100 CALM      29.96R
Norwich        MOCLDY    28  28 100 CALM      29.97R
Oneonta        CLEAR     30  25  80 CALM      29.92R
Penn Yan       CLOUDY    35  23  61 SW13      29.95S WCI  26
Rome           CLOUDY    30  29  96 CALM      29.96F
Sidney         MOCLDY    27  27 100 CALM      29.97R FOG
Syracuse       CLOUDY    35  27  72 SW7       29.95S WCI  29
$$

PAZ038>040-043-044-047-048-072-080800
...Northeast Pennsylvania...

CITY           SKY/WX    TMP DP  RH WIND       PRES   REMARKS
Hazleton       CLOUDY    34  23  64 W5        30.00R WCI  30
Scranton       CLOUDY    38  26  62 SW9       29.98R WCI  31
$$
&&
KEY
WCI = Wind Chill Index
VSB = Visibility
HX  = Heat Index
$$




USA.gov is the U.S. government's official web portal to all federal, state and local government web resources and services.